• In Czech Republic
  • List of Countries
  • For 7 days
  • Water Temperature
  • Satellite Maps
  • Weather Map
  • Weather Widgets
  • user-avatar
    Login

    Hourly Weather Salzburg

    Today, 18 January, Thursday

    Time Temperature Precipitation Wind Pressure Humidity
    00:00 -11°C° 0.7 mm 4 mps 618 mmHg 93%
    01:00 -11°C° 0.7 mm 4 mps 619 mmHg 93%
    02:00 -10°C° 0.6 mm 3 mps 619 mmHg 93%
    03:00 -10°C° 0.6 mm 3 mps 619 mmHg 94%
    04:00 -9°C° 0.6 mm 2 mps 619 mmHg 94%
    05:00 -9°C° 0.7 mm 2 mps 619 mmHg 93%
    06:00 -8°C° 0.7 mm 2 mps 619 mmHg 93%
    07:00 -8°C° 0.7 mm 2 mps 619 mmHg 92%
    08:00 -8°C° 0.4 mm 2 mps 618 mmHg 91%
    09:00 -8°C° 0.4 mm 3 mps 618 mmHg 89%
    10:00 -8°C° 0.4 mm 3 mps 618 mmHg 88%
    11:00 -7°C° 0.7 mm 3 mps 617 mmHg 89%
    12:00 -6°C° 0.7 mm 3 mps 617 mmHg 89%
    13:00 -5°C° 0.7 mm 3 mps 617 mmHg 90%
    14:00 -5°C° 0.1 mm 3 mps 617 mmHg 89%
    15:00 -5°C° 0.1 mm 3 mps 616 mmHg 89%
    16:00 -4°C° 0.1 mm 3 mps 616 mmHg 88%
    17:00 -4°C° 0.1 mm 3 mps 616 mmHg 87%
    18:00 -5°C° 0.1 mm 3 mps 616 mmHg 86%
    19:00 -5°C° 0.1 mm 3 mps 616 mmHg 85%
    20:00 -5°C° 0.2 mm 3 mps 616 mmHg 85%
    21:00 -6°C° 0.2 mm 3 mps 616 mmHg 86%
    22:00 -6°C° 0.2 mm 3 mps 616 mmHg 86%
    23:00 -5°C° 0.7 mm 2 mps 616 mmHg 87%

    Tomorrow, 19 January, Friday

    Time Temperature Precipitation Wind Pressure Humidity
    00:00 -5°C° 0.7 mm 2 mps 616 mmHg 88%
    01:00 -5°C° 0.7 mm 2 mps 616 mmHg 90%
    02:00 -5°C° 1.1 mm 2 mps 616 mmHg 91%
    03:00 -5°C° 1.1 mm 2 mps 616 mmHg 93%
    04:00 -3°C° 1.1 mm 1 mps 616 mmHg 94%
    05:00 -5°C° 1.3 mm 2 mps 617 mmHg 95%
    06:00 -5°C° 1.3 mm 2 mps 617 mmHg 95%
    07:00 -5°C° 1.3 mm 2 mps 618 mmHg 96%
    08:00 -5°C° 0.9 mm 2 mps 618 mmHg 95%
    09:00 -5°C° 0.9 mm 2 mps 618 mmHg 95%
    10:00 -5°C° 0.9 mm 2 mps 618 mmHg 95%
    11:00 -5°C° 0.6 mm 2 mps 618 mmHg 94%
    12:00 -6°C° 0.6 mm 2 mps 618 mmHg 93%
    13:00 -6°C° 0.6 mm 2 mps 618 mmHg 92%
    14:00 -6°C° 0.2 mm 2 mps 618 mmHg 92%
    15:00 -6°C° 0.2 mm 2 mps 618 mmHg 92%
    16:00 -6°C° 0.2 mm 2 mps 618 mmHg 92%
    17:00 -8°C° 0.1 mm 2 mps 618 mmHg 93%
    18:00 -9°C° 0.1 mm 2 mps 618 mmHg 93%
    19:00 -10°C° 0.1 mm 2 mps 618 mmHg 93%
    20:00 -12°C° 0 mm 2 mps 617 mmHg 91%
    21:00 -13°C° 0 mm 2 mps 617 mmHg 88%
    22:00 -13°C° 0 mm 2 mps 617 mmHg 86%
    23:00 -12°C° 0 mm 2 mps 617 mmHg 84%

    Day after tomorrow, 20 January, Saturday

    Time Temperature Precipitation Wind Pressure Humidity
    00:00 -12°C° 0 mm 2 mps 617 mmHg 83%
    01:00 -10°C° 0 mm 2 mps 618 mmHg 81%
    02:00 -10°C° 0.3 mm 2 mps 618 mmHg 85%
    03:00 -9°C° 0.3 mm 2 mps 618 mmHg 89%
    04:00 -9°C° 0.3 mm 2 mps 619 mmHg 93%
    05:00 -9°C° 0.2 mm 2 mps 619 mmHg 93%
    06:00 -9°C° 0.2 mm 2 mps 619 mmHg 92%
    07:00 -9°C° 0.2 mm 2 mps 618 mmHg 92%
    08:00 -9°C° 0.2 mm 2 mps 619 mmHg 91%
    09:00 -8°C° 0.2 mm 2 mps 619 mmHg 89%
    10:00 -8°C° 0.2 mm 2 mps 619 mmHg 88%
    11:00 -7°C° 0.4 mm 2 mps 619 mmHg 86%
    12:00 -6°C° 0.4 mm 2 mps 619 mmHg 84%
    13:00 -4°C° 0.4 mm 1 mps 618 mmHg 82%
    14:00 -4°C° 0.2 mm 1 mps 618 mmHg 84%
    15:00 -6°C° 0.2 mm 1 mps 617 mmHg 87%
    16:00 -6°C° 0.2 mm 1 mps 617 mmHg 90%
    17:00 -6°C° 0.7 mm 1 mps 617 mmHg 92%
    18:00 -7°C° 0.7 mm 1 mps 617 mmHg 94%
    19:00 -8°C° 0.7 mm 0 mps 617 mmHg 96%
    20:00 -8°C° 0.9 mm 1 mps 617 mmHg 96%
    21:00 -8°C° 0.9 mm 1 mps 617 mmHg 97%
    22:00 -8°C° 0.9 mm 1 mps 617 mmHg 97%
    23:00 -8°C° 0.9 mm 1 mps 618 mmHg 97%

    21 January, Sunday

    Time Temperature Precipitation Wind Pressure Humidity
    00:00 -8°C° 0.9 mm 1 mps 618 mmHg 97%
    01:00 -9°C° 0.9 mm 2 mps 618 mmHg 97%
    02:00 -9°C° 0.4 mm 2 mps 618 mmHg 97%
    03:00 -10°C° 0.4 mm 2 mps 619 mmHg 96%
    04:00 -10°C° 0.4 mm 2 mps 619 mmHg 96%
    05:00 -12°C° 0.1 mm 2 mps 619 mmHg 96%
    06:00 -12°C° 0.1 mm 2 mps 619 mmHg 95%
    07:00 -13°C° 0.1 mm 2 mps 619 mmHg 95%
    08:00 -12°C° 0.1 mm 2 mps 620 mmHg 93%
    09:00 -12°C° 0.1 mm 2 mps 621 mmHg 92%
    10:00 -10°C° 0.1 mm 2 mps 621 mmHg 90%
    11:00 -9°C° 0 mm 2 mps 622 mmHg 87%
    12:00 -8°C° 0 mm 2 mps 622 mmHg 84%
    13:00 -8°C° 0 mm 2 mps 622 mmHg 81%
    14:00 -7°C° 0 mm 1 mps 622 mmHg 84%
    15:00 -7°C° 0 mm 1 mps 622 mmHg 87%
    16:00 -8°C° 0 mm 1 mps 622 mmHg 89%
    17:00 -8°C° 0.4 mm 1 mps 622 mmHg 90%
    18:00 -8°C° 0.4 mm 1 mps 622 mmHg 92%
    19:00 -9°C° 0.4 mm 1 mps 622 mmHg 93%
    20:00 -8°C° 0.9 mm 1 mps 622 mmHg 94%
    21:00 -8°C° 0.9 mm 1 mps 622 mmHg 95%
    22:00 -8°C° 0.9 mm 1 mps 622 mmHg 96%
    23:00 -7°C° 1.6 mm 1 mps 622 mmHg 96%

    22 January, Monday

    Time Temperature Precipitation Wind Pressure Humidity
    00:00 -7°C° 1.6 mm 1 mps 622 mmHg 96%
    01:00 -7°C° 1.6 mm 1 mps 622 mmHg 97%
    02:00 -6°C° 1.5 mm 1 mps 622 mmHg 97%
    03:00 -6°C° 1.5 mm 1 mps 623 mmHg 97%
    04:00 -4°C° 1.5 mm 1 mps 623 mmHg 97%
    05:00 -4°C° 2.2 mm 1 mps 623 mmHg 97%
    06:00 -4°C° 2.2 mm 1 mps 623 mmHg 97%
    07:00 -3°C° 2.2 mm 1 mps 624 mmHg 97%
    08:00 -3°C° 1.8 mm 1 mps 624 mmHg 97%
    09:00 -2°C° 1.8 mm 1 mps 625 mmHg 97%
    10:00 -2°C° 1.8 mm 1 mps 625 mmHg 98%
    11:00 -1°C° 1.1 mm 1 mps 626 mmHg 98%
    12:00 -1°C° 1.1 mm 1 mps 626 mmHg 99%
    13:00 0°C° 1.1 mm 1 mps 626 mmHg 99%
    14:00 0°C° 0.9 mm 1 mps 626 mmHg 99%
    15:00 0°C° 0.9 mm 1 mps 627 mmHg 99%
    16:00 0°C° 0.9 mm 1 mps 627 mmHg 98%
    17:00 0°C° 0.9 mm 1 mps 627 mmHg 98%
    18:00 0°C° 0.9 mm 1 mps 627 mmHg 97%
    19:00 0°C° 0.9 mm 1 mps 628 mmHg 97%
    20:00 0°C° 1.5 mm 1 mps 628 mmHg 97%
    21:00 0°C° 1.5 mm 1 mps 628 mmHg 97%
    22:00 0°C° 1.5 mm 1 mps 628 mmHg 97%
    23:00 0°C° 1.9 mm 1 mps 628 mmHg 97%

    23 January, Tuesday

    Time Temperature Precipitation Wind Pressure Humidity
    00:00 0°C° 1.9 mm 1 mps 628 mmHg 98%
    01:00 -2°C° 1.9 mm 2 mps 628 mmHg 98%
    02:00 -2°C° 0.5 mm 2 mps 628 mmHg 98%
    03:00 -2°C° 0.5 mm 2 mps 628 mmHg 98%
    04:00 -2°C° 0.5 mm 2 mps 628 mmHg 98%
    05:00 -2°C° 0.1 mm 2 mps 629 mmHg 97%
    06:00 -2°C° 0.1 mm 2 mps 629 mmHg 97%
    07:00 -2°C° 0.1 mm 2 mps 629 mmHg 96%
    08:00 -2°C° 0 mm 2 mps 629 mmHg 97%
    09:00 -2°C° 0 mm 2 mps 630 mmHg 97%
    10:00 -1°C° 0 mm 2 mps 630 mmHg 98%
    11:00 -1°C° 0.4 mm 2 mps 630 mmHg 98%
    12:00 -1°C° 0.4 mm 2 mps 630 mmHg 99%
    13:00 -1°C° 0.4 mm 2 mps 630 mmHg 99%
    14:00 -1°C° 0.4 mm 2 mps 630 mmHg 98%
    15:00 -1°C° 0.4 mm 2 mps 631 mmHg 97%
    16:00 -1°C° 0.4 mm 2 mps 631 mmHg 96%
    17:00 -2°C° 0 mm 2 mps 631 mmHg 95%
    18:00 -2°C° 0 mm 2 mps 631 mmHg 93%
    19:00 -3°C° 0 mm 2 mps 631 mmHg 92%
    20:00 -3°C° 0 mm 2 mps 632 mmHg 92%
    21:00 -3°C° 0 mm 2 mps 632 mmHg 91%
    22:00 -1°C° 0 mm 1 mps 632 mmHg 91%
    23:00 -1°C° 0 mm 1 mps 632 mmHg 89%
    Show more